Change the Weather History Date:

Monday, September 17, 2012

  Actual Average (KAKO) Record (KAKO)
Temperature  
Mean Temperature 56 °F 62 °F  
Max Temperature 66 °F 76 °F 96 °F (2000)
Min Temperature 46 °F 49 °F 28 °F (1965)
Degree Days  
Heating Degree Days 9    
Month to date heating degree days  
Cooling Degree Days 0    
Month to date cooling degree days  
Growing Degree Days 6 (Base 50)    
Moisture  
Dew Point 38 °F    
Average Humidity 53    
Maximum Humidity 83    
Minimum Humidity 33    
Precipitation  
Precipitation 0.00 in 0.03 in 0.31 in (1993)
Month to date precipitation 0.69  
Year to date precipitation 14.18  
Sea Level Pressure  
Sea Level Pressure 30.19 in    
Wind  
Wind Speed 9 mph ()    
Max Wind Speed 23 mph    
Max Gust Speed 30 mph    
Visibility 9.9 miles    
Events      
T = Trace of Precipitation, MM = Missing Value Source: Averaged Metar Reports

Daily Weather History Graph

Daily Weather History Graph

Search for Another Location

Airport or City:

Trip Planner

Search our weather history database for the weather conditions in past years. The results will help you decide how hot, cold, wet, or windy it might be!

Date:

Astronomy

Sep. 17, 2012 Rise Set
Actual Time 6:38 AM MDT 6:59 PM MDT
Civil Twilight 6:11 AM MDT 7:27 PM MDT
Nautical Twilight 5:39 AM MDT 7:58 PM MDT
Astronomical Twilight 5:06 AM MDT 8:31 PM MDT
Moon 8:30 AM MDT (9/17) 7:42 PM MDT (9/17)
Length of Visible Light 13h 15m
Length of Day
12h 21m
Waxing Crescent, 4% of the Moon is Illuminated
Sep 17
Waxing Crescent
Sep 22
First Quarter
Sep 29
Full
Oct 8
Last Quarter
Oct 15
New

Hourly Weather History & Observations

Time (MDT) Temp. Windchill Dew Point Humidity Pressure Visibility Wind Dir Wind Speed Gust Speed Precip Events Conditions
12:15 AM 58.5 °F - 38.5 °F 47% 30.13 in 10.0 mi NNE 23.0 mph 29.9 mph N/A   Clear
12:35 AM 57.9 °F - 39.0 °F 49% 30.15 in 10.0 mi North 17.3 mph 23.0 mph N/A   Clear
12:55 AM 57.2 °F - 39.4 °F 51% 30.16 in 10.0 mi NNE 13.8 mph - N/A   Scattered Clouds
1:15 AM 55.9 °F - 39.2 °F 53% 30.17 in 10.0 mi NNE 12.7 mph 20.7 mph N/A   Mostly Cloudy
1:35 AM 55.4 °F - 39.2 °F 54% 30.17 in 10.0 mi NE 6.9 mph - N/A   Mostly Cloudy
1:55 AM 54.3 °F - 39.2 °F 57% 30.18 in 10.0 mi North 11.5 mph - N/A   Mostly Cloudy
2:15 AM 54.5 °F - 39.2 °F 56% 30.17 in 10.0 mi NNE 12.7 mph - N/A   Overcast
2:35 AM 54.3 °F - 38.3 °F 55% 30.17 in 10.0 mi North 17.3 mph - N/A   Overcast
2:55 AM 53.6 °F - 38.3 °F 56% 30.15 in 10.0 mi NNE 13.8 mph - N/A   Overcast
3:15 AM 53.1 °F - 38.3 °F 57% 30.15 in 10.0 mi NNE 15.0 mph - N/A   Scattered Clouds
3:35 AM 52.5 °F - 37.8 °F 57% 30.15 in 10.0 mi North 15.0 mph 21.9 mph N/A   Clear
3:55 AM 52.0 °F - 37.4 °F 58% 30.17 in 10.0 mi North 11.5 mph - N/A   Clear
4:15 AM 51.8 °F - 36.9 °F 57% 30.19 in 10.0 mi NNW 6.9 mph - N/A   Clear
4:35 AM 51.6 °F - 36.5 °F 56% 30.18 in 10.0 mi North 9.2 mph - N/A   Clear
4:55 AM 51.8 °F - 36.7 °F 56% 30.19 in 10.0 mi NNE 6.9 mph - N/A   Mostly Cloudy
5:15 AM 51.6 °F - 37.9 °F 60% 30.19 in 10.0 mi North 12.7 mph - N/A   Overcast
5:35 AM 49.3 °F - 39.6 °F 69% 30.20 in 10.0 mi Calm Calm - N/A   Mostly Cloudy
5:55 AM 49.3 °F - 40.1 °F 71% 30.20 in 10.0 mi Calm Calm - N/A   Mostly Cloudy
6:15 AM 48.6 °F - 41.2 °F 76% 30.16 in 10.0 mi East 8.1 mph - N/A   Mostly Cloudy
6:35 AM 47.5 °F - 39.9 °F 75% 30.16 in 10.0 mi ENE 5.8 mph - N/A   Scattered Clouds
6:55 AM 46.0 °F 44.8 °F 40.1 °F 80% 30.18 in 10.0 mi NW 3.5 mph - N/A   Clear
7:15 AM 46.0 °F 44.8 °F 41.0 °F 83% 30.20 in 10.0 mi NW 3.5 mph - N/A   Scattered Clouds
7:35 AM 47.3 °F - 42.3 °F 83% 30.20 in 10.0 mi NW 4.6 mph - N/A   Clear
7:55 AM 48.9 °F - 41.7 °F 76% 30.20 in 10.0 mi NNW 3.5 mph - N/A   Clear
8:15 AM 51.3 °F - 40.3 °F 66% 30.20 in 10.0 mi NW 4.6 mph - N/A   Clear
8:35 AM 51.3 °F - 40.3 °F 66% 30.22 in 10.0 mi NW 8.1 mph - N/A   Clear
8:55 AM 51.4 °F - 39.7 °F 64% 30.23 in 10.0 mi North 5.8 mph - N/A   Clear
9:15 AM 52.3 °F - 40.1 °F 63% 30.22 in 10.0 mi North 5.8 mph - N/A   Clear
9:35 AM 52.0 °F - 40.3 °F 64% 30.23 in 10.0 mi North 6.9 mph - N/A   Clear
9:55 AM 52.3 °F - 40.5 °F 64% 30.23 in 10.0 mi North 9.2 mph - N/A   Clear
10:15 AM 53.1 °F - 39.9 °F 61% 30.23 in 10.0 mi NE 9.2 mph - N/A   Clear
10:35 AM 55.9 °F - 39.9 °F 55% 30.23 in 10.0 mi NE 6.9 mph - N/A   Clear
10:55 AM 57.7 °F - 39.2 °F 50% 30.24 in 10.0 mi NNE 4.6 mph - N/A   Clear
11:15 AM 58.5 °F - 39.2 °F 49% 30.23 in 10.0 mi NE 5.8 mph - N/A   Clear
11:35 AM 59.9 °F - 39.2 °F 46% 30.23 in 10.0 mi ENE 6.9 mph - N/A   Clear
11:55 AM 61.0 °F - 38.8 °F 44% 30.22 in 10.0 mi ENE 9.2 mph - N/A   Clear
12:15 PM 61.3 °F - 38.5 °F 43% 30.21 in 10.0 mi East 11.5 mph - N/A   Clear
12:35 PM 63.1 °F - 38.1 °F 40% 30.20 in 10.0 mi ESE 8.1 mph - N/A   Clear
12:55 PM 63.1 °F - 38.3 °F 40% 30.20 in 10.0 mi East 9.2 mph - N/A   Clear
1:15 PM 63.7 °F - 38.5 °F 39% 30.19 in 10.0 mi ESE 11.5 mph 18.4 mph N/A   Clear
1:35 PM 63.3 °F - 38.5 °F 40% 30.19 in 10.0 mi SE 6.9 mph - N/A   Clear
1:55 PM 63.9 °F - 38.3 °F 39% 30.18 in 10.0 mi East 8.1 mph 20.7 mph N/A   Clear
2:15 PM 64.8 °F - 37.8 °F 37% 30.18 in 10.0 mi ESE 8.1 mph - N/A   Clear
2:35 PM 65.8 °F - 37.4 °F 35% 30.19 in 10.0 mi ENE 5.8 mph - N/A   Clear
2:55 PM 65.3 °F - 37.0 °F 35% 30.18 in 10.0 mi Calm Calm - N/A   Clear
3:15 PM 65.3 °F - 37.4 °F 36% 30.17 in 10.0 mi East 8.1 mph 16.1 mph N/A   Clear
3:35 PM 66.2 °F - 36.9 °F 34% 30.17 in 10.0 mi SSE 6.9 mph - N/A   Clear
3:55 PM 66.0 °F - 37.2 °F 35% 30.16 in 10.0 mi ESE 5.8 mph - N/A   Clear
4:15 PM 66.6 °F - 36.7 °F 33% 30.16 in 10.0 mi East 3.5 mph - N/A   Clear
4:35 PM 65.7 °F - 37.2 °F 35% 30.16 in 10.0 mi ESE 4.6 mph - N/A   Clear
4:55 PM 65.7 °F - 35.8 °F 33% 30.16 in 10.0 mi Calm Calm - N/A   Clear
5:15 PM 64.9 °F - 35.8 °F 34% 30.16 in 10.0 mi Calm Calm - N/A   Clear
5:35 PM 64.9 °F - 35.8 °F 34% 30.16 in 10.0 mi Calm Calm - N/A   Clear
5:55 PM 64.4 °F - 36.0 °F 35% 30.16 in 10.0 mi ESE 3.5 mph - N/A   Clear
6:15 PM 63.7 °F - 36.1 °F 36% 30.17 in 10.0 mi ESE 4.6 mph - N/A   Clear
6:35 PM 62.4 °F - 37.0 °F 39% 30.18 in 10.0 mi East 4.6 mph - N/A   Scattered Clouds
6:55 PM 59.0 °F - 38.3 °F 46% 30.17 in 10.0 mi East 5.8 mph - N/A   Scattered Clouds
7:15 PM 56.3 °F - 38.3 °F 51% 30.17 in 10.0 mi East 5.8 mph - N/A   Clear
7:35 PM 55.9 °F - 38.5 °F 52% 30.18 in 10.0 mi ENE 4.6 mph - N/A   Clear
7:55 PM 55.2 °F - 38.3 °F 53% 30.19 in 10.0 mi ENE 5.8 mph - N/A   Clear
8:15 PM 54.1 °F - 38.3 °F 55% 30.19 in 10.0 mi East 5.8 mph - N/A   Clear
8:35 PM 53.2 °F - 37.8 °F 56% 30.19 in 10.0 mi East 5.8 mph - N/A   Clear
8:55 PM 52.7 °F - 37.8 °F 57% 30.19 in 10.0 mi East 4.6 mph - N/A   Clear
9:15 PM 52.7 °F - 37.8 °F 57% 30.19 in 10.0 mi ENE 3.5 mph - N/A   Clear
9:35 PM 53.1 °F - 37.9 °F 57% 30.19 in 10.0 mi ENE 3.5 mph - N/A   Clear
10:15 PM 51.4 °F - 37.8 °F 60% 30.20 in 10.0 mi ENE 4.6 mph - N/A   Clear
10:35 PM 50.0 °F - 37.8 °F 63% 30.21 in 10.0 mi ENE 3.5 mph - N/A   Clear
10:55 PM 50.5 °F - 37.8 °F 62% 30.20 in 10.0 mi East 3.5 mph - N/A   Clear
11:15 PM 50.7 °F - 37.8 °F 61% 30.20 in 10.0 mi Calm Calm - N/A   Clear
11:35 PM 49.3 °F - 37.9 °F 65% 30.20 in 4.0 mi SE 4.6 mph - N/A   Clear
11:55 PM 48.4 °F - 38.3 °F 68% 30.20 in 10.0 mi Calm Calm - N/A   Clear